Home   Weather   Santa Rosa   Past weeks
Flag for USA

Past Weather in Santa Rosa, California, USA — Yesterday and Last 2 Weeks

Now
54 °F

Clear.


Feels Like: 54 °F
Forecast: 84 / 54 °F
Wind: 3 mph from South

Location: Santa Rosa Sonoma County Airport

Current Time: Jul 22, 2019 at 1:07:11 am

Latest Report: Jul 21, 2019 at 11:53 pm


Visibility: 10 mi

Pressure: 29.91 "Hg

Humidity: 90%

Dew Point: 51 °F

Location of Santa RosaLocation

Past Weather in Santa Rosa — Graph

°F

Santa Rosa Temperature Yesterday

Maximum temperature yesterday: 81 °F (at 3:53 pm)
Minimum temperature yesterday: 52 °F (at 3:53 am)
Average temperature yesterday: 62 °F

High & Low Weather Summary for the Past Weeks

 TemperatureHumidityPressure
High93 °F (Jul 15, 3:53 pm)100% (Jul 8, 4:39 am)30.09 "Hg (Jul 8, 4:39 am)
Low50 °F (Jul 9, 5:53 am)16% (Jul 16, 1:53 pm)29.78 "Hg (Jul 16, 5:53 pm)
Average65 °F73%29.91 "Hg
* Reported Jul 6 11:53 pm — Jul 21 11:53 pm, Santa Rosa. Weather by CustomWeather, © 2019

Note: Actual official high and low records may vary slightly from our data, if they occured in-between our weather recording intervals... More about our weather records

Advertising

Santa Rosa Weather History for the Previous 24 Hours

Scroll right to see more
 ConditionsComfort  
Time TempWeatherWind HumidityBarometerVisibility
11:53 pm
Sun, Jul 21
54 °FClear.3 mph90%29.91 "Hg10 mi
10:53 pm55 °FClear.No wind90%29.91 "Hg10 mi
9:53 pm57 °FClear.7 mph83%29.91 "Hg10 mi
8:53 pm60 °FClear.8 mph80%29.89 "Hg10 mi
7:53 pm70 °FSunny.9 mph59%29.88 "Hg10 mi
6:53 pm75 °FScattered clouds.9 mph52%29.86 "Hg10 mi
5:53 pm80 °FScattered clouds.12 mph44%29.85 "Hg10 mi
4:53 pm80 °FScattered clouds.9 mph45%29.87 "Hg10 mi
3:53 pm81 °FSunny.10 mph45%29.88 "Hg10 mi
2:53 pm79 °FScattered clouds.8 mph52%29.90 "Hg10 mi
1:53 pm74 °FSunny.9 mph57%29.91 "Hg10 mi
12:53 pm74 °FScattered clouds.N/A57%29.92 "Hg10 mi
11:53 am69 °FScattered clouds.3 mph63%29.93 "Hg10 mi
10:53 am62 °FBroken clouds.3 mph78%29.94 "Hg10 mi
10:21 am59 °FBroken clouds.3 mph84%29.97 "Hg10 mi
9:53 am58 °FPartly sunny.No wind84%29.94 "Hg10 mi
9:05 am54 °FLow clouds.No wind97%29.96 "Hg9 mi
8:53 am55 °FLow clouds.No wind93%29.94 "Hg9 mi
7:53 am53 °FFog.No wind96%29.93 "Hg2 mi
7:03 am53 °FFog.No wind96%29.94 "Hg2 mi
5:53 am52 °FFog.No wind100%29.90 "Hg3 mi
5:38 am52 °FFog.No wind100%29.92 "Hg2 mi
4:53 am52 °FLow clouds.3 mph100%29.90 "Hg9 mi
3:53 am52 °FFog.3 mph100%29.89 "Hg4 mi
2:53 am53 °FLow clouds.3 mph96%29.89 "Hg7 mi
1:53 am53 °FLow clouds.No wind100%29.89 "Hg8 mi
Weather by CustomWeather, © 2019

See weather overview